Location: Unspecified
(0.0000°N, 0.0000°E)
Time: 22:47:59
(UTC+00:00)

Transit 4A - All Passes

Search period start: 28 May 2022 00:00
Search period end: 07 June 2022 00:00
Orbit: 863 x 981 km, 66.8° (Epoch: 28 May)

Date Brightness Start Highest point End Pass type
(mag) Time Alt. Az. Time Alt. Az. Time Alt. Az.
28 May - 00:20:52 10° ESE 00:22:07 11° ESE 00:23:21 10° E night (unlit)
28 May - 02:02:05 10° SSW 02:08:11 62° WNW 02:14:27 10° N visible
28 May - 13:14:23 10° N 13:20:09 50° ENE 13:25:47 10° SE daylight
28 May - 15:04:10 10° W 15:06:11 12° WSW 15:08:12 10° SW daylight
29 May - 00:27:02 10° SSE 00:31:21 20° ESE 00:35:43 10° ENE night (unlit)
29 May - 02:11:48 10° SW 02:17:25 36° WNW 02:23:10 10° N visible
29 May - 13:23:23 10° NNW 13:29:21 87° ENE 13:35:12 10° SSE daylight
30 May - 00:35:05 10° S 00:40:34 33° ESE 00:46:10 10° NE night (unlit)
30 May - 02:22:04 10° WSW 02:26:40 22° WNW 02:31:21 10° NNW visible
30 May - 11:50:54 10° NE 11:52:25 11° ENE 11:53:54 10° E daylight
30 May - 13:32:46 10° NNW 13:38:33 54° WSW 13:44:13 10° S daylight
31 May - 00:43:43 10° S 00:49:47 57° ESE 00:55:58 10° NNE night (unlit)
31 May - 02:33:40 10° W 02:35:58 12° WNW 02:38:16 10° NW night (unlit)
31 May - 11:57:25 10° NNE 12:01:41 20° ENE 12:05:52 10° ESE daylight
31 May - 13:42:36 10° NW 13:47:45 31° WSW 13:52:48 10° S daylight
01 Jun - 00:52:45 10° SSW 00:58:59 86° WNW 01:05:21 10° NNE night (unlit)
01 Jun - 12:05:33 10° N 12:10:56 35° ENE 12:16:11 10° SE daylight
01 Jun - 13:53:09 10° WNW 13:56:57 18° WSW 14:00:44 10° SSW daylight
01 Jun - 23:19:15 10° SE 23:22:08 13° ESE 23:25:02 10° E night (unlit)
02 Jun - 01:02:12 10° SW 01:08:12 51° WNW 01:14:20 10° N night (unlit)
02 Jun - 12:14:17 10° N 12:20:08 61° ENE 12:25:53 10° SSE daylight
02 Jun - 23:26:31 10° SSE 23:31:22 24° ESE 23:36:16 10° ENE night (unlit)
03 Jun - 01:12:05 10° SW 01:17:26 30° WNW 01:22:55 10° N night (unlit)
03 Jun - 12:23:24 10° NNW 12:29:21 78° WSW 12:35:09 10° SSE daylight
03 Jun - 23:34:48 10° S 23:40:34 40° ESE 23:46:26 10° NE night (unlit)
04 Jun - 01:22:39 10° WSW 01:26:42 18° WNW 01:30:48 10° NNW night (unlit)
04 Jun - 10:49:32 10° NE 10:52:25 14° ENE 10:55:16 10° E daylight
04 Jun - 12:32:56 10° NW 12:38:32 44° WSW 12:44:02 10° S daylight
04 Jun - 23:43:36 10° SSW 23:49:47 68° ESE 23:56:05 10° NNE night (unlit)
05 Jun - 10:56:58 10° NNE 11:01:41 24° ENE 11:06:19 10° ESE daylight
05 Jun - 12:42:57 10° NW 12:47:44 25° WSW 12:52:26 10° SSW daylight
05 Jun - 23:52:46 10° SSW 23:58:59 73° WNW 00:05:20 10° NNE night (unlit)
06 Jun - 11:05:20 10° N 11:10:55 42° ENE 11:16:22 10° SE daylight
06 Jun - 12:53:56 10° WNW 12:56:56 14° WSW 12:59:56 10° SW daylight
06 Jun - 22:18:20 10° SSE 22:22:08 17° ESE 22:25:58 10° ENE night (unlit)
